Location: Unspecified
(50.7693°N, 0.0000°E)
Time: 02:59:17
(UTC+00:00)

Transit 2A - Pass Details

Date: 28 June 2019
Orbit: 600 x 959 km, 66.7° (Epoch: 13 October)

Event Time Altitude Azimuth Distance (km) Brightness Sun altitude
Rises 07:26:03 0° 321° (NW) 3,461 9.1 30.8°
Reaches altitude 10° 07:28:40 10° 319° (NW) 2,467 8.4 31.2°
Maximum altitude 07:34:17 69° 238° (WSW) 835 6.5 32.1°
Drops below altitude 10° 07:39:19 10° 156° (SSE) 2,209 8.8 32.9°
Sets 07:41:32 0° 153° (SSE) 3,072 9.5 33.2°
